Aktion, Greece

6:47 AM EEST on August 21, 2017 (GMT +0300)
Aktion Air Base

Weather History for LGPZ - March, 2013

Change the Weather History Date:

Sunday, March 3, 2013

  Actual Average Record
Temperature  
Mean Temperature 54 °F -  
Max Temperature 61 °F 59 °F 68 °F (2002)
Min Temperature 47 °F 46 °F 39 °F (2005)
Degree Days  
Heating Degree Days 11    
Growing Degree Days 4 (Base 50)    
Moisture  
Dew Point 42 °F    
Average Humidity 62    
Maximum Humidity 93    
Minimum Humidity 31    
Precipitation  
Precipitation 0.00 in - - ()
Sea Level Pressure  
Sea Level Pressure 29.88 in    
Wind  
Wind Speed 4 mph ()    
Max Wind Speed 15 mph    
Max Gust Speed -    
Visibility 6.2 miles    
Events Rain    
Averages and records for this station are not official NWS values.
T = Trace of Precipitation, MM = Missing Value Source: Averaged Metar Reports

Daily Weather History Graph

Daily Weather History Graph

Search for Another Location

Airport or City:

Trip Planner

Search our weather history database for the weather conditions in past years. The results will help you decide how hot, cold, wet, or windy it might be!

Date:

Astronomy

Mar. 03, 2013 Rise Set
Actual Time 7:06 AM EET 6:31 PM EET
Civil Twilight 6:39 AM EET 6:58 PM EET
Nautical Twilight 6:08 AM EET 7:29 PM EET
Astronomical Twilight 5:38 AM EET 8:00 PM EET
Moon No Moon Rise 10:10 AM EET (3/3)
Length of Visible Light 12h 18m
Length of Day
11h 25m
Waning Gibbous, 67% of the Moon is Illuminated
Mar 3
Waning Gibbous
Mar 4
Last Quarter
Mar 11
New
Mar 19
First Quarter
Mar 27
Full

Hourly Weather History & Observations

Time (EET) Temp. Dew Point Humidity Pressure Visibility Wind Dir Wind Speed Gust Speed Precip Events Conditions
12:50 AM 48.2 °F 46.4 °F 93% 29.86 in 6.2 mi Calm Calm - N/A Rain Light Rain
1:50 AM 50.0 °F 44.6 °F 82% 29.86 in 6.2 mi ESE 10.4 mph - N/A Rain Light Rain
2:00 AM 50 °F 44 °F 72% 29.87 in 6 mi ESE 10.4 mph - - Rain Light Rain
2:50 AM 50.0 °F 42.8 °F 76% 29.86 in 6.2 mi Calm Calm - N/A   Overcast
3:50 AM 51.8 °F 41.0 °F 67% 29.83 in 6.2 mi ESE 15.0 mph - N/A   Overcast
4:50 AM 51.8 °F 41.0 °F 67% 29.83 in 6.2 mi East 8.1 mph - N/A   Overcast
5:20 AM 51.8 °F 41.0 °F 67% 29.83 in 6.2 mi East 12.7 mph - N/A   Overcast
5:50 AM 50.0 °F 41.0 °F 71% 29.83 in 6.2 mi Calm Calm - N/A   Overcast
6:20 AM 50.0 °F 41.0 °F 71% 29.83 in 6.2 mi Calm Calm - N/A   Overcast
6:50 AM 50.0 °F 41.0 °F 71% 29.86 in 6.2 mi East 5.8 mph - N/A   Overcast
7:20 AM 50.0 °F 41.0 °F 71% 29.86 in 6.2 mi Calm Calm - N/A   Overcast
7:50 AM 48.2 °F 42.8 °F 82% 29.86 in 6.2 mi Calm Calm - N/A   Scattered Clouds
8:00 AM 48 °F 43 °F 75% 29.87 in 6 mi Calm Calm - -   Partly Cloudy
8:20 AM 50.0 °F 44.6 °F 82% 29.86 in 6.2 mi Calm Calm - N/A   Scattered Clouds
8:50 AM 53.6 °F 42.8 °F 67% 29.89 in 6.2 mi Calm Calm - N/A   Scattered Clouds
9:50 AM 57.2 °F 41.0 °F 55% 29.89 in 6.2 mi NE 6.9 mph - N/A   Partly Cloudy
10:20 AM 57.2 °F 41.0 °F 55% 29.89 in 6.2 mi NE 6.9 mph - N/A   Partly Cloudy
10:50 AM 59.0 °F 41.0 °F 51% 29.89 in 6.2 mi Calm Calm - N/A   Partly Cloudy
11:20 AM 59.0 °F 41.0 °F 51% 29.89 in 6.2 mi Calm Calm - N/A   Partly Cloudy
11:50 AM 60.8 °F 39.2 °F 45% 29.89 in 6.2 mi Calm Calm - N/A   Partly Cloudy
12:20 PM 60.8 °F 39.2 °F 45% 29.89 in 6.2 mi Calm Calm - N/A   Partly Cloudy
12:50 PM 60.8 °F 41.0 °F 48% 29.89 in 6.2 mi NE 8.1 mph - N/A   Partly Cloudy
1:50 PM 60.8 °F 39.2 °F 45% 29.86 in 6.2 mi North 5.8 mph - N/A   Partly Cloudy
2:00 PM 62 °F 39 °F 31% 29.88 in 6 mi North 5.8 mph - -   Scattered Clouds
2:20 PM 60.8 °F 39.2 °F 45% 29.86 in 6.2 mi North 5.8 mph - N/A   Partly Cloudy
2:50 PM 60.8 °F 39.2 °F 45% 29.86 in 6.2 mi North 5.8 mph - N/A   Partly Cloudy
3:20 PM 60.8 °F 39.2 °F 45% 29.86 in 6.2 mi North 5.8 mph - N/A   Partly Cloudy
3:50 PM 60.8 °F 37.4 °F 42% 29.89 in 6.2 mi NNE 5.8 mph - N/A   Partly Cloudy
4:20 PM 60.8 °F 37.4 °F 42% 29.89 in 6.2 mi NNE 5.8 mph - N/A   Partly Cloudy
4:50 PM 62.6 °F 39.2 °F 42% 29.89 in 6.2 mi NE 5.8 mph - N/A   Partly Cloudy
5:20 PM 62.6 °F 39.2 °F 42% 29.89 in 6.2 mi NE 5.8 mph - N/A   Partly Cloudy
5:50 PM 59.0 °F 42.8 °F 55% 29.89 in 6.2 mi Calm Calm - N/A   Partly Cloudy
6:20 PM 59.0 °F 42.8 °F 55% 29.89 in 6.2 mi Calm Calm - N/A   Partly Cloudy
6:50 PM 55.4 °F 44.6 °F 67% 29.92 in 6.2 mi Calm Calm - N/A   Partly Cloudy
7:20 PM 55.4 °F 44.6 °F 67% 29.92 in 6.2 mi Calm Calm - N/A   Partly Cloudy
7:50 PM 55.4 °F 46.4 °F 72% 29.92 in 6.2 mi Calm Calm - N/A   Partly Cloudy
8:00 PM 55 °F 46 °F 63% 29.93 in 6 mi Calm Calm - -   Scattered Clouds
8:50 PM 55.4 °F 46.4 °F 72% 29.92 in 6.2 mi Calm Calm - N/A   Partly Cloudy
9:50 PM 50.0 °F 44.6 °F 82% 29.95 in 6.2 mi Calm Calm - N/A   Partly Cloudy
10:50 PM 50.0 °F 44.6 °F 82% 29.98 in 6.2 mi ENE 6.9 mph - N/A   Partly Cloudy
11:50 PM 51.8 °F 42.8 °F 71% 29.98 in 6.2 mi ENE 10.4 mph - N/A   Partly Cloudy